This is the latest recevied weather packets stored in our database for station/object WX4ET. If no packets are shown the sender has not sent any weather packets the latest 1 day(s).
| Time | Temp. | Humidity | Pressure | Rain* | Wind** | Luminosity | Snow |
|---|---|---|---|---|---|---|---|
| 1778048964 | 15.56° C | 97% | 1006 hPa | 0 mm | 0 m/s | 0 W/m² | - |
| 1778048662 | 15.56° C | 97% | 1005.8 hPa | 0 mm | 0 m/s | 0 W/m² | - |
| 1778048358 | 15.56° C | 97% | 1005.8 hPa | 0 mm | 0 m/s | 0 W/m² | - |
| 1778048055 | 15.56° C | 97% | 1005.6 hPa | 0 mm | 0 m/s | 0 W/m² | - |
| 1778047753 | 15.56° C | 97% | 1005.7 hPa | 0 mm | 0 m/s | 0 W/m² | - |
| 1778047450 | 15.56° C | 97% | 1005.8 hPa | 0 mm | 0 m/s | 0 W/m² | - |
| 1778047147 | 15.56° C | 97% | 1005.8 hPa | 0 mm | 0 m/s | 0 W/m² | - |
| 1778046844 | 15.56° C | 97% | 1005.5 hPa | 0 mm | 0 m/s | 0 W/m² | - |
| 1778046540 | 15.56° C | 96% | 1005.7 hPa | 0 mm | 0 m/s | 0 W/m² | - |
| 1778046238 | 15.56° C | 95% | 1005.8 hPa | 0 mm | 0 m/s | 0 W/m² | - |
| 1778045934 | 15.56° C | 96% | 1005.8 hPa | 0 mm | 0 m/s | 0 W/m² | - |
| 1778045632 | 15.56° C | 95% | 1005.8 hPa | 0 mm | 0 m/s | 0 W/m² | - |
| 1778045330 | 15.56° C | 94% | 1005.9 hPa | 0 mm | 0 m/s | 0 W/m² | - |
| 1778045029 | 15.56° C | 92% | 1006 hPa | 0 mm | 0 m/s | 0 W/m² | - |
| 1778044726 | 15.56° C | 92% | 1006.1 hPa | 1.27 mm | 0 m/s | 0 W/m² | - |
| 1778044422 | 16.11° C | 91% | 1006.1 hPa | 1.27 mm | 0 m/s | 0 W/m² | - |
| 1778044120 | 16.67° C | 87% | 1006.6 hPa | 0 mm | 0 m/s | 0 W/m² | - |
| 1778043817 | 16.67° C | 85% | 1006.8 hPa | 0 mm | 0 m/s | 0 W/m² | - |
| 1778043514 | 16.67° C | 82% | 1006.8 hPa | 0 mm | 0 m/s | 0 W/m² | - |
| 1778043211 | 16.67° C | 81% | 1006.9 hPa | 0 mm | 0 m/s | 0 W/m² | - |
| 1778042907 | 16.67° C | 81% | 1006.7 hPa | 0 mm | 0 m/s | 0 W/m² | - |
| 1778042605 | 16.67° C | 82% | 1006.7 hPa | 0 mm | 0 m/s | 0 W/m² | - |
| 1778042302 | 16.67° C | 84% | 1006.9 hPa | 0 mm | 0 m/s | 0 W/m² | - |
| 1778042000 | 16.67° C | 83% | 1006.8 hPa | 0 mm | 0 m/s | 0 W/m² | - |
| 1778041698 | 16.67° C | 82% | 1006.7 hPa | 0 mm | 0 m/s | 0 W/m² | - |
* Rain latest hour (hover to see other rain measurements)
** Current wind speed in m/s (hover to see current wind gust speed)